EN

Hourly Weather Kyzyl Oktyabr

Today, 3 August, Tuesday

Time Temperature Precipitation Wind Pressure Humidity
00:00 +22°C° 0 mm 3 mps 752 mmHg 51%
01:00 +21°C° 0 mm 3 mps 752 mmHg 52%
02:00 +21°C° 0 mm 3 mps 752 mmHg 52%
03:00 +21°C° 0 mm 3 mps 752 mmHg 52%
04:00 +20°C° 0 mm 3 mps 752 mmHg 53%
05:00 +21°C° 0 mm 2 mps 752 mmHg 51%
06:00 +24°C° 0 mm 2 mps 752 mmHg 50%
07:00 +25°C° 0 mm 2 mps 752 mmHg 49%
08:00 +27°C° 0 mm 2 mps 752 mmHg 44%
09:00 +29°C° 0 mm 2 mps 752 mmHg 39%
10:00 +32°C° 0 mm 2 mps 752 mmHg 34%
11:00 +34°C° 0 mm 2 mps 752 mmHg 31%
12:00 +35°C° 0 mm 2 mps 752 mmHg 28%
13:00 +36°C° 0 mm 2 mps 752 mmHg 25%
14:00 +37°C° 0 mm 2 mps 751 mmHg 25%
15:00 +37°C° 0 mm 2 mps 751 mmHg 24%
16:00 +37°C° 0 mm 1 mps 751 mmHg 23%
17:00 +36°C° 0 mm 2 mps 750 mmHg 29%
18:00 +34°C° 0 mm 2 mps 750 mmHg 34%
19:00 +33°C° 0 mm 3 mps 750 mmHg 40%
20:00 +30°C° 0 mm 3 mps 750 mmHg 42%
21:00 +29°C° 0 mm 3 mps 750 mmHg 43%
22:00 +28°C° 0 mm 3 mps 750 mmHg 45%
23:00 +27°C° 0 mm 3 mps 750 mmHg 48%

Tomorrow, 4 August, Wednesday

Time Temperature Precipitation Wind Pressure Humidity
00:00 +26°C° 0 mm 2 mps 750 mmHg 51%
01:00 +24°C° 0 mm 1 mps 750 mmHg 54%
02:00 +24°C° 0 mm 1 mps 750 mmHg 54%
03:00 +24°C° 0 mm 1 mps 750 mmHg 54%
04:00 +24°C° 0 mm 1 mps 750 mmHg 53%
05:00 +25°C° 0 mm 1 mps 750 mmHg 53%
06:00 +26°C° 0 mm 2 mps 750 mmHg 52%
07:00 +26°C° 0 mm 2 mps 750 mmHg 52%
08:00 +28°C° 0 mm 2 mps 751 mmHg 47%
09:00 +29°C° 0 mm 2 mps 751 mmHg 43%
10:00 +30°C° 0 mm 2 mps 751 mmHg 39%
11:00 +32°C° 0 mm 2 mps 751 mmHg 36%
12:00 +34°C° 0 mm 2 mps 751 mmHg 33%
13:00 +36°C° 0 mm 2 mps 751 mmHg 30%
14:00 +36°C° 0 mm 2 mps 750 mmHg 29%
15:00 +36°C° 0 mm 2 mps 750 mmHg 27%
16:00 +37°C° 0 mm 2 mps 750 mmHg 26%
17:00 +35°C° 0 mm 2 mps 750 mmHg 31%
18:00 +34°C° 0 mm 2 mps 750 mmHg 37%
19:00 +31°C° 0 mm 3 mps 750 mmHg 43%
20:00 +28°C° 0.2 mm 3 mps 750 mmHg 53%
21:00 +25°C° 0.2 mm 3 mps 750 mmHg 64%
22:00 +22°C° 0.2 mm 3 mps 751 mmHg 75%
23:00 +21°C° 0 mm 3 mps 751 mmHg 79%

Day after tomorrow, 5 August, Thursday

Time Temperature Precipitation Wind Pressure Humidity
00:00 +21°C° 0 mm 3 mps 751 mmHg 83%
01:00 +20°C° 0 mm 3 mps 750 mmHg 87%
02:00 +19°C° 0.1 mm 3 mps 751 mmHg 89%
03:00 +19°C° 0.1 mm 3 mps 751 mmHg 92%
04:00 +18°C° 0.1 mm 3 mps 751 mmHg 94%
05:00 +18°C° 0 mm 3 mps 751 mmHg 91%
06:00 +18°C° 0 mm 3 mps 752 mmHg 88%
07:00 +19°C° 0 mm 3 mps 752 mmHg 85%
08:00 +20°C° 0 mm 3 mps 752 mmHg 76%
09:00 +22°C° 0 mm 4 mps 752 mmHg 67%
10:00 +25°C° 0 mm 4 mps 752 mmHg 58%
11:00 +26°C° 0 mm 4 mps 752 mmHg 52%
12:00 +27°C° 0 mm 4 mps 752 mmHg 47%
13:00 +28°C° 0 mm 5 mps 752 mmHg 41%
14:00 +28°C° 0 mm 5 mps 752 mmHg 40%
15:00 +29°C° 0 mm 4 mps 752 mmHg 39%
16:00 +29°C° 0 mm 4 mps 752 mmHg 38%
17:00 +28°C° 0 mm 4 mps 752 mmHg 42%
18:00 +27°C° 0 mm 4 mps 752 mmHg 46%
19:00 +26°C° 0 mm 4 mps 752 mmHg 49%
20:00 +24°C° 0 mm 3 mps 752 mmHg 55%
21:00 +21°C° 0 mm 3 mps 753 mmHg 62%
22:00 +20°C° 0 mm 2 mps 753 mmHg 68%
23:00 +19°C° 0 mm 2 mps 753 mmHg 72%

6 August, Friday

Time Temperature Precipitation Wind Pressure Humidity
00:00 +18°C° 0 mm 2 mps 753 mmHg 77%
01:00 +17°C° 0 mm 2 mps 753 mmHg 82%
02:00 +16°C° 0 mm 1 mps 753 mmHg 84%
03:00 +16°C° 0 mm 1 mps 754 mmHg 87%
04:00 +15°C° 0 mm 1 mps 754 mmHg 89%
05:00 +16°C° 0 mm 1 mps 754 mmHg 84%
06:00 +18°C° 0 mm 1 mps 754 mmHg 79%
07:00 +19°C° 0 mm 1 mps 754 mmHg 75%
08:00 +20°C° 0 mm 2 mps 754 mmHg 68%
09:00 +23°C° 0 mm 2 mps 754 mmHg 61%
10:00 +24°C° 0 mm 3 mps 754 mmHg 55%
11:00 +25°C° 0.1 mm 3 mps 754 mmHg 48%
12:00 +26°C° 0.1 mm 4 mps 755 mmHg 41%
13:00 +27°C° 0.1 mm 4 mps 755 mmHg 34%
14:00 +27°C° 0 mm 5 mps 754 mmHg 34%
15:00 +27°C° 0 mm 5 mps 754 mmHg 33%
16:00 +27°C° 0 mm 5 mps 754 mmHg 33%
17:00 +26°C° 0 mm 5 mps 754 mmHg 36%
18:00 +25°C° 0 mm 4 mps 755 mmHg 40%
19:00 +24°C° 0 mm 3 mps 755 mmHg 43%
20:00 +21°C° 0 mm 3 mps 755 mmHg 47%
21:00 +20°C° 0 mm 3 mps 755 mmHg 51%
22:00 +18°C° 0 mm 2 mps 755 mmHg 55%
23:00 +17°C° 0 mm 2 mps 755 mmHg 57%

7 August, Saturday

Time Temperature Precipitation Wind Pressure Humidity
00:00 +16°C° 0 mm 2 mps 755 mmHg 59%
01:00 +15°C° 0 mm 2 mps 755 mmHg 62%
02:00 +14°C° 0 mm 2 mps 756 mmHg 65%
03:00 +13°C° 0 mm 2 mps 756 mmHg 68%
04:00 +13°C° 0 mm 2 mps 756 mmHg 71%
05:00 +14°C° 0 mm 2 mps 756 mmHg 66%
06:00 +15°C° 0 mm 2 mps 757 mmHg 61%
07:00 +17°C° 0 mm 2 mps 757 mmHg 56%
08:00 +18°C° 0 mm 3 mps 757 mmHg 50%
09:00 +20°C° 0 mm 4 mps 757 mmHg 44%
10:00 +22°C° 0 mm 4 mps 757 mmHg 38%
11:00 +22°C° 0 mm 5 mps 757 mmHg 36%
12:00 +23°C° 0 mm 5 mps 757 mmHg 34%
13:00 +24°C° 0 mm 6 mps 757 mmHg 32%
14:00 +24°C° 0 mm 6 mps 757 mmHg 31%
15:00 +24°C° 0 mm 6 mps 757 mmHg 30%
16:00 +24°C° 0 mm 6 mps 757 mmHg 29%
17:00 +23°C° 0 mm 5 mps 757 mmHg 32%
18:00 +22°C° 0 mm 5 mps 757 mmHg 35%
19:00 +21°C° 0 mm 4 mps 757 mmHg 38%
20:00 +19°C° 0 mm 4 mps 757 mmHg 45%
21:00 +17°C° 0 mm 3 mps 757 mmHg 51%
22:00 +15°C° 0 mm 2 mps 757 mmHg 58%
23:00 +14°C° 0 mm 2 mps 758 mmHg 60%

8 August, Sunday

Time Temperature Precipitation Wind Pressure Humidity
00:00 +13°C° 0 mm 2 mps 758 mmHg 62%
01:00 +13°C° 0 mm 2 mps 758 mmHg 64%
02:00 +12°C° 0 mm 2 mps 758 mmHg 67%
03:00 +12°C° 0 mm 2 mps 758 mmHg 69%
04:00 +10°C° 0 mm 2 mps 759 mmHg 72%
05:00 +13°C° 0 mm 2 mps 759 mmHg 66%
06:00 +14°C° 0 mm 2 mps 759 mmHg 61%
07:00 +16°C° 0 mm 3 mps 759 mmHg 56%
08:00 +18°C° 0 mm 3 mps 759 mmHg 49%
09:00 +19°C° 0 mm 4 mps 759 mmHg 41%
10:00 +21°C° 0 mm 5 mps 759 mmHg 33%
11:00 +22°C° 0 mm 5 mps 759 mmHg 31%
12:00 +23°C° 0 mm 5 mps 759 mmHg 28%
13:00 +25°C° 0 mm 5 mps 758 mmHg 26%
14:00 +26°C° 0 mm 5 mps 758 mmHg 25%
15:00 +26°C° 0 mm 5 mps 758 mmHg 24%
16:00 +26°C° 0 mm 5 mps 758 mmHg 24%
17:00 +25°C° 0 mm 4 mps 758 mmHg 28%
18:00 +24°C° 0 mm 3 mps 758 mmHg 31%
19:00 +22°C° 0 mm 3 mps 758 mmHg 35%
20:00 +20°C° 0 mm 2 mps 758 mmHg 41%
21:00 +18°C° 0 mm 2 mps 759 mmHg 47%
22:00 +16°C° 0 mm 2 mps 759 mmHg 53%
23:00 +15°C° 0 mm 2 mps 759 mmHg 55%
Show more